TimeEDT,TemperatureF,Dew PointF,Humidity,Sea Level PressureIn,VisibilityMPH,Wind Direction,Wind SpeedMPH,Gust SpeedMPH,PrecipitationIn,Events,Conditions,WindDirDegrees,DateUTC
12:15 AM,63.7,63.7,100,30.16,7.0,Calm,Calm,-,N/A,,Clear,0,2013-08-20 04:15:00
12:35 AM,63.5,63.5,100,30.16,7.0,Calm,Calm,-,N/A,,Clear,0,2013-08-20 04:35:00
12:55 AM,65.3,65.3,100,30.16,7.0,Calm,Calm,-,N/A,,Clear,0,2013-08-20 04:55:00
1:15 AM,64.9,64.9,100,30.16,0.8,Calm,Calm,-,N/A,,Mist,0,2013-08-20 05:15:00
1:35 AM,63.5,63.5,100,30.15,2.0,Calm,Calm,-,N/A,,Clear,0,2013-08-20 05:35:00
1:55 AM,64.2,64.2,100,30.15,0.8,Calm,Calm,-,N/A,,Overcast,0,2013-08-20 05:55:00
2:15 AM,65.5,65.5,100,30.14,0.2,Calm,Calm,-,N/A,Fog,Fog,0,2013-08-20 06:15:00
2:35 AM,64.8,64.8,100,30.14,2.0,Calm,Calm,-,N/A,,Overcast,0,2013-08-20 06:35:00
2:55 AM,64.9,64.9,100,30.14,1.8,Calm,Calm,-,N/A,,Overcast,0,2013-08-20 06:55:00
3:15 AM,65.5,65.5,100,30.14,0.2,Calm,Calm,-,N/A,Fog,Fog,0,2013-08-20 07:15:00
3:35 AM,65.3,65.3,100,30.14,0.2,SW,3.5,-,N/A,Fog,Fog,220,2013-08-20 07:35:00
3:55 AM,64.8,64.8,100,30.14,0.2,Calm,Calm,-,N/A,Fog,Fog,0,2013-08-20 07:55:00
4:15 AM,64.9,64.9,100,30.14,0.8,Calm,Calm,-,N/A,,Overcast,0,2013-08-20 08:15:00
4:35 AM,65.3,65.3,100,30.14,2.5,Calm,Calm,-,N/A,,Overcast,0,2013-08-20 08:35:00
4:55 AM,65.3,65.3,100,30.14,5.0,Calm,Calm,-,N/A,,Overcast,0,2013-08-20 08:55:00
5:15 AM,65.7,65.7,100,30.14,7.0,Calm,Calm,-,N/A,,Overcast,0,2013-08-20 09:15:00
5:35 AM,65.8,65.8,100,30.14,1.8,Calm,Calm,-,N/A,,Overcast,0,2013-08-20 09:35:00
5:55 AM,66.2,66.2,100,30.14,0.5,Calm,Calm,-,N/A,Fog,Fog,0,2013-08-20 09:55:00
6:15 AM,66.6,66.6,100,30.15,0.2,Calm,Calm,-,N/A,Fog,Fog,0,2013-08-20 10:15:00
6:35 AM,66.6,66.6,100,30.16,0.2,Calm,Calm,-,N/A,Fog,Fog,0,2013-08-20 10:35:00
6:55 AM,66.7,66.7,100,30.16,0.5,Calm,Calm,-,N/A,Fog,Fog,0,2013-08-20 10:55:00
7:15 AM,66.6,66.6,100,30.16,0.5,Calm,Calm,-,N/A,Fog,Fog,0,2013-08-20 11:15:00
7:35 AM,66.7,66.7,100,30.17,0.5,Calm,Calm,-,N/A,Fog,Fog,0,2013-08-20 11:35:00
7:55 AM,67.1,67.1,100,30.17,0.2,Calm,Calm,-,N/A,Fog,Fog,0,2013-08-20 11:55:00
8:15 AM,67.1,67.1,100,30.17,0.5,Calm,Calm,-,N/A,Fog,Fog,0,2013-08-20 12:15:00
8:35 AM,67.6,67.6,100,30.17,1.2,Calm,Calm,-,N/A,,Overcast,0,2013-08-20 12:35:00
8:55 AM,68.0,68.0,100,30.18,1.8,Calm,Calm,-,N/A,,Overcast,0,2013-08-20 12:55:00
9:15 AM,68.2,68.2,100,30.19,2.5,Calm,Calm,-,N/A,,Overcast,0,2013-08-20 13:15:00
9:35 AM,68.9,68.9,100,30.19,4.0,Calm,Calm,-,N/A,,Overcast,0,2013-08-20 13:35:00
9:55 AM,70.3,70.3,100,30.19,10.0,SSW,3.5,-,N/A,,Overcast,200,2013-08-20 13:55:00
10:15 AM,70.9,70.9,100,30.20,10.0,Calm,Calm,-,N/A,,Overcast,0,2013-08-20 14:15:00
10:35 AM,71.6,71.2,99,30.20,10.0,Calm,Calm,-,N/A,,Overcast,0,2013-08-20 14:35:00
10:55 AM,72.9,71.4,95,30.21,10.0,Calm,Calm,-,N/A,,Overcast,0,2013-08-20 14:55:00
11:15 AM,74.5,69.8,85,30.21,10.0,Calm,Calm,-,N/A,,Mostly Cloudy,0,2013-08-20 15:15:00
11:35 AM,76.5,69.6,79,30.21,10.0,Calm,Calm,-,N/A,,Mostly Cloudy,0,2013-08-20 15:35:00
11:55 AM,77.5,70.2,78,30.21,10.0,Calm,Calm,-,N/A,,Scattered Clouds,0,2013-08-20 15:55:00
12:15 PM,77.4,68.9,75,30.21,10.0,Calm,Calm,-,N/A,,Scattered Clouds,0,2013-08-20 16:15:00
12:35 PM,78.4,69.1,73,30.21,10.0,Calm,Calm,-,N/A,,Mostly Cloudy,0,2013-08-20 16:35:00
12:55 PM,79.0,69.4,72,30.21,10.0,South,3.5,-,N/A,,Mostly Cloudy,180,2013-08-20 16:55:00
1:15 PM,79.3,69.1,71,30.21,7.0,Calm,Calm,-,N/A,,Mostly Cloudy,0,2013-08-20 17:15:00
1:35 PM,79.2,69.8,73,30.21,5.0,Calm,Calm,-,N/A,,Haze,0,2013-08-20 17:35:00
1:55 PM,80.1,69.1,69,30.20,7.0,SW,4.6,-,N/A,,Mostly Cloudy,220,2013-08-20 17:55:00
2:15 PM,80.4,69.3,69,30.20,7.0,Calm,Calm,-,N/A,,Scattered Clouds,0,2013-08-20 18:15:00
2:35 PM,79.9,68.9,69,30.20,7.0,SW,3.5,-,N/A,,Scattered Clouds,230,2013-08-20 18:35:00
2:55 PM,80.8,69.4,68,30.19,7.0,Calm,Calm,-,N/A,,Mostly Cloudy,0,2013-08-20 18:55:00
3:15 PM,80.6,70.3,71,30.18,7.0,Calm,Calm,-,N/A,,Mostly Cloudy,0,2013-08-20 19:15:00
3:35 PM,81.0,68.9,67,30.17,7.0,Calm,Calm,-,N/A,,Scattered Clouds,0,2013-08-20 19:35:00
3:55 PM,81.0,70.2,70,30.16,4.0,South,5.8,-,N/A,,Haze,170,2013-08-20 19:55:00
4:15 PM,80.6,69.6,69,30.16,7.0,South,3.5,-,N/A,,Scattered Clouds,180,2013-08-20 20:15:00
4:35 PM,80.8,69.8,69,30.15,7.0,South,3.5,-,N/A,,Scattered Clouds,190,2013-08-20 20:35:00
4:55 PM,79.9,70.0,72,30.15,7.0,Calm,Calm,-,N/A,,Clear,0,2013-08-20 20:55:00
5:15 PM,79.7,70.3,73,30.15,7.0,SSE,4.6,-,N/A,,Clear,160,2013-08-20 21:15:00
5:35 PM,79.7,70.7,74,30.15,7.0,SSE,6.9,-,N/A,,Clear,160,2013-08-20 21:35:00
5:55 PM,79.2,70.0,73,30.16,7.0,South,3.5,-,N/A,,Scattered Clouds,170,2013-08-20 21:55:00
6:15 PM,78.8,70.2,75,30.15,7.0,Calm,Calm,-,N/A,,Scattered Clouds,0,2013-08-20 22:15:00
6:35 PM,78.3,70.3,77,30.16,7.0,Calm,Calm,-,N/A,,Clear,0,2013-08-20 22:35:00
6:55 PM,78.3,70.7,77,30.16,7.0,Calm,Calm,-,N/A,,Clear,0,2013-08-20 22:55:00
7:15 PM,77.4,70.7,80,30.17,5.0,Calm,Calm,-,N/A,,Haze,0,2013-08-20 23:15:00
7:35 PM,75.6,71.2,86,30.18,7.0,Calm,Calm,-,N/A,,Clear,0,2013-08-20 23:35:00
7:55 PM,73.6,71.2,92,30.18,7.0,Calm,Calm,-,N/A,,Clear,0,2013-08-20 23:55:00
8:15 PM,72.5,70.9,95,30.18,7.0,Calm,Calm,-,N/A,,Clear,0,2013-08-21 00:15:00
8:35 PM,72.3,71.2,96,30.19,5.0,Calm,Calm,-,N/A,,Clear,0,2013-08-21 00:35:00
8:55 PM,71.2,70.3,97,30.18,7.0,Calm,Calm,-,N/A,,Clear,0,2013-08-21 00:55:00
9:15 PM,71.1,70.3,98,30.18,5.0,Calm,Calm,-,N/A,,Clear,0,2013-08-21 01:15:00
9:35 PM,71.1,70.7,99,30.19,5.0,Calm,Calm,-,N/A,,Clear,0,2013-08-21 01:35:00
9:55 PM,70.3,69.8,98,30.19,4.0,Calm,Calm,-,N/A,,Clear,0,2013-08-21 01:55:00
10:15 PM,69.6,69.3,99,30.19,4.0,Calm,Calm,-,N/A,,Clear,0,2013-08-21 02:15:00
10:35 PM,68.9,68.5,99,30.19,4.0,Calm,Calm,-,N/A,,Clear,0,2013-08-21 02:35:00
10:55 PM,67.8,67.5,99,30.19,3.0,Calm,Calm,-,N/A,,Clear,0,2013-08-21 02:55:00
11:15 PM,67.5,67.3,99,30.20,0.8,Calm,Calm,-,N/A,,Mist,0,2013-08-21 03:15:00
11:35 PM,67.1,66.7,99,30.21,2.5,Calm,Calm,-,N/A,,Clear,0,2013-08-21 03:35:00
11:55 PM,66.4,66.2,99,30.21,2.0,Calm,Calm,-,N/A,,Scattered Clouds,0,2013-08-21 03:55:00